1998-067XW

Last updated on Sun Dec 14 2025 00:02:09 GMT+0000 (Coordinated Universal Time)

1 66910U 98067XW 25346.85318993 .00081487 00000+0 13339-2 0 9996 2 66910 51.6298 141.7982 0005252 209.4111 150.6584 15.51770354 1636
UTC large
Height (km)
Speed (km/s)
/
Latitude / Longitude
Inclination (degrees)
Orbital Period (minutes)
Azimuth
Elevation
Range (km)
Doppler Factor

Next 0 passes for location: London (51.5072 / 0.1276)

Sorry there are no passes over London.